When you browse on this site, cookies collect data to enhance your experience and personalize the content and advertising you see.
Visit our Privacy Policy to learn more. By continuing to use the site, you agree to this use of cookies and data.
  • In United Kingdom
  • List of Countries
  • For 7 days
  • Water Temperature
  • Satellite Maps
  • Weather Map
  • Weather Widgets
  • user-avatar
    Login

    Hourly Weather Sent-Eli

    Today, 23 February, Saturday

    Time Temperature Precipitation Wind Pressure Humidity
    00:00 +26°C° 0 mm 6 mps 756 mmHg 82%
    01:00 +26°C° 0 mm 6 mps 756 mmHg 82%
    02:00 +26°C° 0 mm 6 mps 756 mmHg 83%
    03:00 +26°C° 0.1 mm 6 mps 756 mmHg 84%
    04:00 +26°C° 0.1 mm 6 mps 756 mmHg 85%
    05:00 +26°C° 0.1 mm 6 mps 756 mmHg 86%
    06:00 +27°C° 0.1 mm 6 mps 756 mmHg 83%
    07:00 +27°C° 0.1 mm 6 mps 757 mmHg 80%
    08:00 +28°C° 0.1 mm 6 mps 757 mmHg 77%
    09:00 +29°C° 0.1 mm 6 mps 757 mmHg 74%
    10:00 +29°C° 0.1 mm 6 mps 757 mmHg 71%
    11:00 +30°C° 0.1 mm 6 mps 757 mmHg 69%
    12:00 +30°C° 0.1 mm 6 mps 756 mmHg 68%
    13:00 +30°C° 0.1 mm 6 mps 756 mmHg 68%
    14:00 +30°C° 0.1 mm 6 mps 755 mmHg 67%
    15:00 +29°C° 0.1 mm 6 mps 755 mmHg 70%
    16:00 +29°C° 0.1 mm 6 mps 755 mmHg 74%
    17:00 +28°C° 0.1 mm 6 mps 754 mmHg 77%
    18:00 +28°C° 0 mm 6 mps 755 mmHg 79%
    19:00 +27°C° 0 mm 6 mps 755 mmHg 80%
    20:00 +27°C° 0 mm 6 mps 756 mmHg 82%
    21:00 +27°C° 0 mm 6 mps 756 mmHg 82%
    22:00 +27°C° 0 mm 6 mps 756 mmHg 82%
    23:00 +27°C° 0 mm 6 mps 756 mmHg 82%

    Tomorrow, 24 February, Sunday

    Time Temperature Precipitation Wind Pressure Humidity
    00:00 +27°C° 0.1 mm 6 mps 756 mmHg 83%
    01:00 +26°C° 0.1 mm 6 mps 755 mmHg 84%
    02:00 +26°C° 0.1 mm 6 mps 755 mmHg 85%
    03:00 +26°C° 0.1 mm 6 mps 755 mmHg 85%
    04:00 +26°C° 0.1 mm 6 mps 755 mmHg 85%
    05:00 +26°C° 0.1 mm 6 mps 755 mmHg 85%
    06:00 +27°C° 0.2 mm 6 mps 755 mmHg 82%
    07:00 +27°C° 0.2 mm 6 mps 756 mmHg 80%
    08:00 +28°C° 0.2 mm 6 mps 756 mmHg 77%
    09:00 +29°C° 0.1 mm 6 mps 756 mmHg 72%
    10:00 +30°C° 0.1 mm 6 mps 757 mmHg 68%
    11:00 +32°C° 0.1 mm 6 mps 757 mmHg 64%
    12:00 +30°C° 0.1 mm 6 mps 756 mmHg 65%
    13:00 +30°C° 0.1 mm 6 mps 755 mmHg 67%
    14:00 +29°C° 0.1 mm 6 mps 754 mmHg 69%
    15:00 +29°C° 0 mm 6 mps 754 mmHg 71%
    16:00 +29°C° 0 mm 6 mps 754 mmHg 72%
    17:00 +28°C° 0 mm 6 mps 753 mmHg 74%
    18:00 +28°C° 0 mm 6 mps 754 mmHg 76%
    19:00 +27°C° 0 mm 6 mps 754 mmHg 79%
    20:00 +27°C° 0 mm 6 mps 755 mmHg 81%
    21:00 +27°C° 0.1 mm 6 mps 755 mmHg 81%
    22:00 +27°C° 0.1 mm 6 mps 755 mmHg 81%
    23:00 +27°C° 0.1 mm 6 mps 756 mmHg 81%

    Day after tomorrow, 25 February, Monday

    Time Temperature Precipitation Wind Pressure Humidity
    00:00 +27°C° 0.2 mm 6 mps 755 mmHg 83%
    01:00 +27°C° 0.2 mm 6 mps 754 mmHg 84%
    02:00 +27°C° 0.2 mm 6 mps 754 mmHg 85%
    03:00 +26°C° 0.6 mm 6 mps 754 mmHg 86%
    04:00 +26°C° 0.6 mm 6 mps 754 mmHg 88%
    05:00 +26°C° 0.6 mm 6 mps 754 mmHg 89%
    06:00 +26°C° 0.5 mm 7 mps 755 mmHg 88%
    07:00 +27°C° 0.5 mm 7 mps 755 mmHg 86%
    08:00 +28°C° 0.5 mm 7 mps 756 mmHg 85%
    09:00 +28°C° 0.2 mm 7 mps 756 mmHg 81%
    10:00 +29°C° 0.2 mm 7 mps 756 mmHg 76%
    11:00 +30°C° 0.2 mm 7 mps 756 mmHg 72%
    12:00 +30°C° 0.1 mm 7 mps 756 mmHg 70%
    13:00 +30°C° 0.1 mm 7 mps 755 mmHg 69%
    14:00 +32°C° 0.1 mm 7 mps 754 mmHg 67%
    15:00 +30°C° 0.1 mm 7 mps 754 mmHg 71%
    16:00 +29°C° 0.1 mm 7 mps 754 mmHg 75%
    17:00 +28°C° 0.1 mm 7 mps 754 mmHg 78%
    18:00 +28°C° 0.1 mm 7 mps 754 mmHg 79%
    19:00 +28°C° 0.1 mm 7 mps 755 mmHg 80%
    20:00 +27°C° 0.1 mm 7 mps 755 mmHg 81%
    21:00 +27°C° 0.1 mm 7 mps 756 mmHg 81%
    22:00 +27°C° 0.1 mm 7 mps 756 mmHg 81%
    23:00 +27°C° 0.1 mm 8 mps 756 mmHg 81%

    26 February, Tuesday

    Time Temperature Precipitation Wind Pressure Humidity
    00:00 +27°C° 0.1 mm 7 mps 755 mmHg 80%
    01:00 +27°C° 0.1 mm 7 mps 755 mmHg 80%
    02:00 +27°C° 0.1 mm 7 mps 754 mmHg 79%
    03:00 +27°C° 0.1 mm 7 mps 755 mmHg 80%
    04:00 +27°C° 0.1 mm 7 mps 755 mmHg 80%
    05:00 +26°C° 0.1 mm 7 mps 755 mmHg 80%
    06:00 +27°C° 0.1 mm 7 mps 755 mmHg 77%
    07:00 +28°C° 0.1 mm 7 mps 756 mmHg 74%
    08:00 +29°C° 0.1 mm 7 mps 757 mmHg 71%
    09:00 +29°C° 0.1 mm 7 mps 757 mmHg 68%
    10:00 +30°C° 0.1 mm 7 mps 757 mmHg 66%
    11:00 +32°C° 0.1 mm 7 mps 757 mmHg 63%
    12:00 +32°C° 0.1 mm 6 mps 756 mmHg 63%
    13:00 +32°C° 0.1 mm 6 mps 756 mmHg 63%
    14:00 +32°C° 0.1 mm 6 mps 755 mmHg 64%
    15:00 +30°C° 0.1 mm 6 mps 755 mmHg 68%
    16:00 +29°C° 0.1 mm 6 mps 755 mmHg 72%
    17:00 +28°C° 0.1 mm 6 mps 755 mmHg 76%
    18:00 +28°C° 0.1 mm 6 mps 756 mmHg 78%
    19:00 +27°C° 0.1 mm 6 mps 756 mmHg 81%
    20:00 +27°C° 0.1 mm 6 mps 756 mmHg 83%
    21:00 +27°C° 0.1 mm 6 mps 756 mmHg 83%
    22:00 +27°C° 0.1 mm 6 mps 756 mmHg 83%
    23:00 +27°C° 0.1 mm 6 mps 756 mmHg 83%

    27 February, Wednesday

    Time Temperature Precipitation Wind Pressure Humidity
    00:00 +27°C° 0.1 mm 6 mps 756 mmHg 83%
    01:00 +27°C° 0.1 mm 6 mps 755 mmHg 83%
    02:00 +27°C° 0.1 mm 6 mps 755 mmHg 83%
    03:00 +27°C° 0.1 mm 7 mps 755 mmHg 82%
    04:00 +27°C° 0.1 mm 7 mps 755 mmHg 82%
    05:00 +26°C° 0.1 mm 7 mps 755 mmHg 82%
    06:00 +27°C° 0.1 mm 7 mps 756 mmHg 79%
    07:00 +28°C° 0.1 mm 7 mps 756 mmHg 75%
    08:00 +29°C° 0.1 mm 7 mps 757 mmHg 72%
    09:00 +29°C° 0.2 mm 6 mps 757 mmHg 69%
    10:00 +30°C° 0.2 mm 6 mps 757 mmHg 67%
    11:00 +32°C° 0.2 mm 6 mps 757 mmHg 64%
    12:00 +32°C° 0.2 mm 6 mps 756 mmHg 64%
    13:00 +32°C° 0.2 mm 6 mps 756 mmHg 63%
    14:00 +32°C° 0.2 mm 6 mps 755 mmHg 63%
    15:00 +30°C° 0 mm 6 mps 755 mmHg 66%
    16:00 +29°C° 0 mm 6 mps 755 mmHg 69%
    17:00 +29°C° 0 mm 6 mps 755 mmHg 72%
    18:00 +28°C° 0.1 mm 6 mps 755 mmHg 75%
    19:00 +27°C° 0.1 mm 6 mps 756 mmHg 77%
    20:00 +27°C° 0.1 mm 6 mps 756 mmHg 79%
    21:00 +27°C° 0 mm 6 mps 756 mmHg 79%
    22:00 +27°C° 0 mm 6 mps 756 mmHg 78%
    23:00 +27°C° 0 mm 6 mps 756 mmHg 78%

    28 February, Thursday

    Time Temperature Precipitation Wind Pressure Humidity
    00:00 +27°C° 0.1 mm 6 mps 756 mmHg 79%
    01:00 +26°C° 0.1 mm 6 mps 755 mmHg 79%
    02:00 +26°C° 0.1 mm 6 mps 755 mmHg 80%
    03:00 +26°C° 0.1 mm 6 mps 755 mmHg 80%
    04:00 +26°C° 0.1 mm 6 mps 755 mmHg 80%
    05:00 +26°C° 0.1 mm 6 mps 755 mmHg 79%
    06:00 +27°C° 0.1 mm 6 mps 756 mmHg 76%
    07:00 +28°C° 0.1 mm 6 mps 756 mmHg 73%
    08:00 +29°C° 0.1 mm 6 mps 757 mmHg 69%
    09:00 +29°C° 0.1 mm 6 mps 757 mmHg 69%
    10:00 +29°C° 0.1 mm 6 mps 757 mmHg 68%
    11:00 +29°C° 0.1 mm 6 mps 757 mmHg 67%
    12:00 +29°C° 0.1 mm 6 mps 757 mmHg 65%
    13:00 +30°C° 0.1 mm 5 mps 756 mmHg 62%
    14:00 +30°C° 0.1 mm 5 mps 756 mmHg 59%
    15:00 +30°C° 0.1 mm 5 mps 756 mmHg 63%
    16:00 +29°C° 0.1 mm 5 mps 756 mmHg 67%
    17:00 +28°C° 0.1 mm 5 mps 755 mmHg 71%
    18:00 +27°C° 0.1 mm 5 mps 756 mmHg 74%
    19:00 +27°C° 0.1 mm 5 mps 756 mmHg 77%
    20:00 +26°C° 0.1 mm 6 mps 756 mmHg 79%
    21:00 +27°C° 0.1 mm 6 mps 757 mmHg 79%
    22:00 +27°C° 0.1 mm 6 mps 757 mmHg 79%
    23:00 +27°C° 0.1 mm 6 mps 757 mmHg 79%
    Show more